Wind_Speed
10 11 12 12 16 18 18 17 17 16 16 16 16 16 16 16 16 15 14 15 15 15 15 16 16 17 19 19 20 20 18 16 18 23 24 22 20 22 20 21 22 22 21
11 11 12 13 15 16 20 19 18 18 18 20 20 21 20 19 18 18 19 20 19 19 19 18 19 19 19 17 17 16 15 13 12 9 12 19 20 20 23 24 22 25 27
14 15 13 14 15 16 19 20 19 19 22 23 23 24 21 22 22 21 22 22 22 22 22 24 24 21 19 18 18 17 15 14 13 12 13 17 21 19 16 16 17 20 21
17 17 16 20 20 19 17 19 21 20 19 24 24 25 23 23 21 21 22 22 23 25 24 24 24 23 22 23 22 20 17 16 15 13 13 15 17 16 18 16 15 18 18
18 20 22 19 25 21 20 20 21 19 18 19 22 23 23 23 24 25 25 23 22 23 23 23 21 21 22 24 21 18 17 15 16 16 14 15 15 16 16 16 16 17 15
19 20 22 21 21 18 20 22 23 22 19 19 19 20 21 22 23 24 22 23 23 21 23 22 27 18 24 23 20 17 15 14 15 18 13 13 14 14 16 16 13 13 11
17 24 26 25 24 23 26 25 26 23 21 19 19 21 21 25 22 23 23 21 24 22 24 28 26 21 24 21 22 13 11 12 17 16 12 13 14 14 13 14 16 14 14
14 16 22 26 29 26 27 27 26 24 21 20 19 21 24 22 22 24 20 22 26 26 27 24 23 23 21 19 16 14 14 16 16 17 16 14 14 15 16 14 14 13 10
12 14 13 22 30 30 25 28 27 26 24 20 20 22 22 22 24 23 21 21 22 28 25 25 23 19 21 21 18 17 18 19 18 18 15 15 15 16 17 16 15 13 12
11 9 10 13 30 30 29 25 24 27 25 24 23 25 25 24 23 23 20 22 21 25 27 23 23 22 23 22 18 16 18 19 18 17 16 17 17 17 17 13 12 12 13
13 10 10 11 10 21 26 25 25 24 25 23 24 26 25 23 22 23 27 28 28 29 25 21 26 24 20 20 16 19 19 20 18 16 15 13 15 12 11 12 12 11 8
10 8 10 10 12 13 12 21 21 25 23 24 25 26 26 22 22 22 22 22 16 19 27 23 24 22 21 20 18 17 19 18 17 15 16 16 15 13 12 12 10 9 13
3 3 2 6 8 11 15 19 20 26 27 30 28 28 26 25 23 22 22 20 19 22 22 21 19 21 20 17 15 14 13 13 14 16 14 12 11 10 8 7 5 5 6
6 5 5 8 10 10 9 13 19 22 24 28 28 23 24 27 23 20 20 20 24 24 20 20 20 20 15 13 13 12 11 11 11 11 11 12 12 9 6 5 4 5 6
5 6 9 9 9 8 7 9 10 14 20 24 31 31 26 30 29 26 22 22 26 24 20 19 19 18 17 13 10 9 10 10 9 7 12 10 10 9 7 6 5 4 4
10 8 9 10 9 9 9 9 9 11 13 16 19 25 29 30 25 28 21 18 25 23 25 19 24 21 18 14 11 11 10 9 8 7 7 8 9 10 9 7 7 7 8
11 11 13 12 13 13 13 13 13 11 10 11 13 14 15 19 22 21 23 24 27 28 27 24 28 25 18 14 13 12 11 10 10 10 10 11 12 13 12 11 12 11 11
13 14 14 14 14 15 16 15 15 16 15 14 12 10 12 15 19 25 23 23 26 29 28 24 20 26 18 16 13 12 12 12 13 14 15 15 15 16 15 15 14 13 13
13 13 14 15 15 15 16 15 14 15 16 16 17 17 15 13 12 14 17 19 21 23 24 21 25 31 20 17 14 12 12 11 13 15 18 17 18 18 18 18 17 16 17
14 14 13 15 17 16 15 13 14 14 13 15 17 19 20 19 18 17 16 15 15 15 17 16 17 28 26 18 19 16 15 13 14 17 19 19 20 20 21 19 19 19 20
12 14 14 14 16 17 16 16 15 15 13 14 18 19 21 20 20 19 18 16 19 21 23 22 12 22 19 22 23 20 20 18 19 20 21 22 24 23 23 22 21 22 23
15 16 13 13 14 16 17 18 15 16 16 17 20 20 17 21 23 23 22 20 21 22 23 23 21 20 24 27 26 26 26 25 25 25 24 24 26 26 24 24 24 24 25
17 18 13 13 13 13 14 16 18 19 19 19 18 16 15 17 23 26 25 23 22 22 22 24 25 25 26 26 26 28 27 28 30 27 29 27 26 27 26 26 26 27 28
20 20 16 13 12 16 15 16 17 17 21 22 21 18 20 23 21 23 26 26 25 24 23 23 23 24 25 26 27 28 29 29 30 29 29 28 27 28 29 30 29 30 29
25 21 15 13 15 16 18 17 21 21 21 23 23 22 18 18 17 18 24 25 24 24 25 26 26 26 26 25 27 28 29 28 28 27 26 26 27 26 27 33 34 29 28
31 23 18 16 16 21 22 18 18 23 23 24 25 23 21 16 17 14 17 25 27 26 24 25 27 28 28 27 29 29 29 27 27 26 28 25 27 27 25 26 25 34 37
Wind_Direction
219 212 225 218 204 203 202 208 212 218 219 222 228 229 230 232 230 235 240 244 247 257 262 274 281 280 279 277 278 282 282 286 275 277 257 265 278 272 279 280 280 279 276
233 225 217 222 225 215 209 212 214 217 219 220 227 231 232 236 240 244 248 251 254 263 267 276 276 281 281 278 282 285 279 273 282 297 248 256 276 285 282 272 286 284 275
230 237 221 221 220 229 222 223 225 223 227 226 225 234 238 242 243 249 255 260 265 272 276 276 275 277 281 282 277 275 269 267 267 270 268 274 280 278 289 270 288 294 278
238 237 234 227 224 216 224 231 230 232 235 231 231 235 238 244 252 254 258 263 268 272 273 270 270 273 271 272 274 269 267 267 265 265 264 278 297 273 276 274 280 293 284
249 235 232 232 231 218 222 227 235 236 236 235 236 241 247 248 251 258 263 266 262 264 271 268 269 272 270 264 266 254 263 271 274 265 271 275 279 282 284 272 274 290 284
244 238 239 236 246 222 230 232 237 235 233 234 238 243 247 251 252 254 260 263 264 263 260 265 259 269 275 276 275 267 263 276 275 277 276 274 273 277 279 280 276 279 276
244 235 236 243 237 231 231 227 229 234 236 240 240 245 246 254 257 260 260 260 262 265 263 256 272 267 273 287 269 260 278 285 273 276 277 274 277 280 286 274 275 276 268
269 259 232 231 225 226 228 231 236 237 238 236 236 244 246 253 248 250 260 260 262 264 269 272 267 266 273 289 297 289 286 282 282 280 278 279 275 270 274 277 271 279 280
263 273 280 226 220 219 229 233 235 235 236 239 235 244 250 252 256 260 257 258 262 263 271 271 266 273 279 280 280 282 283 278 274 270 279 274 265 272 276 265 258 268 278
257 273 290 276 224 225 233 237 237 248 238 243 241 245 251 253 255 249 259 260 256 263 270 248 252 262 271 277 278 278 278 272 272 281 277 278 273 283 277 265 265 264 270
244 263 279 278 264 224 230 239 244 233 231 242 244 246 241 251 254 246 263 272 271 260 278 269 250 258 268 272 269 268 269 275 273 276 281 275 278 281 245 276 275 269 270
261 245 262 265 261 262 250 241 240 235 240 240 248 245 251 251 253 253 259 284 286 262 271 274 243 254 265 269 269 274 273 267 265 271 272 270 264 265 261 264 264 263 254
20 124 269 284 286 268 258 257 265 250 238 253 246 245 244 244 253 263 263 265 265 265 268 261 250 255 270 277 272 274 271 270 271 268 261 253 252 258 260 256 256 251 229
351 327 273 271 267 271 278 268 257 241 255 244 246 253 245 251 246 255 261 264 259 256 259 259 259 249 267 273 273 262 264 263 266 252 252 248 251 248 230 246 265 262 228
347 323 295 285 273 272 292 289 269 248 249 256 252 252 252 256 247 262 252 264 260 255 256 256 225 237 243 255 259 257 254 256 262 259 239 232 244 228 235 249 246 243 223
346 331 319 313 308 295 285 276 273 271 259 253 249 253 262 246 262 254 252 255 251 246 244 243 233 235 241 253 257 253 251 250 255 246 239 241 245 254 252 242 238 233 228
7 5 355 342 329 329 309 292 285 269 265 271 260 252 255 259 253 252 253 254 242 248 251 251 252 220 235 239 245 248 249 249 251 248 245 248 253 258 254 242 240 243 242
1 359 349 353 356 338 333 324 304 286 277 270 267 266 256 253 257 254 251 249 254 248 251 246 221 209 222 232 241 249 256 261 259 261 260 259 258 259 257 256 255 254 250
341 347 344 343 340 336 339 325 318 311 281 276 271 264 259 251 245 248 246 248 245 248 255 257 229 214 213 225 241 248 259 264 267 266 267 265 265 264 261 261 263 263 264
329 320 329 339 336 326 326 323 316 313 308 284 273 267 263 262 257 256 253 254 251 244 245 256 267 221 211 237 243 249 263 274 282 277 271 267 265 264 264 264 266 267 270
320 317 318 330 335 324 314 320 313 307 298 296 289 276 267 264 261 260 260 257 254 255 251 256 283 197 234 249 251 254 261 269 275 285 285 276 270 265 263 267 269 271 273
315 321 310 310 320 329 328 321 309 301 304 303 305 273 279 267 263 257 252 250 253 252 254 251 238 233 249 257 259 259 259 266 274 280 284 276 270 272 273 273 275 275 277
295 310 292 287 296 315 329 329 326 318 310 305 299 290 288 282 276 265 257 251 249 249 253 254 252 251 252 253 257 262 265 266 270 275 279 275 271 272 273 274 274 275 277
291 310 276 284 298 304 314 327 326 316 320 307 304 300 280 291 292 277 260 257 255 254 255 257 259 260 259 258 258 260 261 265 271 274 274 273 273 276 278 279 276 277 281
278 283 287 280 299 294 298 313 319 325 321 314 303 295 297 286 281 299 262 259 261 260 260 258 258 258 259 261 262 263 264 266 266 269 268 268 269 274 277 281 284 285 285
266 274 280 287 296 300 299 295 301 309 317 320 311 301 296 283 283 276 278 261 251 256 263 266 266 262 262 260 262 265 266 263 264 264 267 271 270 273 275 275 277 284 291
Height
5890 5891 5894 5896 5896 5898 5900 5902 5905 5907 5909 5911 5913 5914 5915 5917 5919 5919 5920 5921 5921 5921 5922 5921 5922 5921 5920 5920 5920 5920 5919 5918 5917 5917 5917 5918 5917 5917 5917 5917 5917 5916 5915
5889 5890 5891 5894 5896 5898 5899 5900 5902 5904 5907 5909 5910 5911 5913 5914 5916 5917 5916 5917 5918 5918 5919 5920 5918 5917 5917 5916 5916 5917 5917 5916 5914 5913 5913 5914 5914 5913 5913 5913 5913 5911 5909
5886 5888 5889 5892 5894 5896 5897 5899 5900 5901 5903 5905 5907 5908 5910 5912 5912 5913 5913 5914 5915 5916 5917 5916 5915 5915 5916 5915 5913 5912 5913 5913 5911 5911 5910 5912 5910 5909 5908 5908 5908 5906 5903
5884 5886 5885 5884 5888 5889 5892 5897 5897 5898 5900 5901 5903 5905 5906 5907 5909 5909 5910 5912 5912 5911 5912 5910 5909 5911 5911 5911 5911 5911 5910 5910 5909 5907 5907 5907 5907 5905 5905 5904 5904 5902 5899
5879 5882 5877 5884 5884 5886 5888 5892 5894 5896 5897 5898 5899 5902 5904 5904 5904 5904 5906 5908 5908 5906 5907 5906 5905 5905 5906 5906 5905 5905 5906 5906 5905 5904 5902 5903 5903 5902 5901 5900 5900 5899 5896
5875 5876 5873 5878 5876 5882 5884 5888 5891 5892 5893 5895 5896 5898 5900 5900 5900 5900 5902 5902 5902 5903 5903 5903 5893 5897 5899 5902 5901 5899 5901 5901 5901 5900 5899 5899 5899 5898 5897 5896 5897 5896 5894
5869 5870 5872 5869 5873 5876 5881 5886 5886 5888 5889 5891 5893 5894 5895 5896 5896 5897 5898 5897 5896 5899 5897 5895 5894 5895 5896 5899 5896 5896 5896 5897 5897 5896 5896 5895 5895 5894 5893 5892 5893 5893 5891
5864 5865 5866 5869 5871 5873 5878 5881 5882 5883 5884 5886 5887 5889 5890 5892 5891 5891 5894 5894 5892 5893 5892 5891 5892 5889 5892 5896 5895 5894 5892 5892 5893 5894 5892 5891 5891 5890 5890 5890 5889 5889 5888
5862 5862 5861 5863 5866 5869 5871 5874 5875 5877 5879 5881 5883 5884 5885 5886 5887 5888 5888 5888 5888 5886 5885 5885 5885 5886 5888 5890 5891 5888 5887 5888 5888 5889 5886 5886 5886 5886 5886 5885 5886 5886 5886
5858 5858 5858 5858 5860 5862 5866 5870 5871 5872 5875 5876 5878 5879 5880 5881 5882 5882 5882 5882 5882 5881 5879 5877 5882 5883 5884 5883 5885 5885 5883 5883 5883 5882 5881 5881 5880 5881 5882 5882 5881 5882 5882
5855 5855 5855 5855 5854 5858 5862 5864 5866 5867 5869 5871 5872 5874 5873 5874 5874 5877 5876 5877 5876 5876 5877 5877 5874 5878 5879 5879 5877 5876 5876 5875 5875 5876 5877 5877 5878 5878 5878 5878 5878 5877 5877
5852 5852 5854 5854 5854 5855 5857 5860 5861 5862 5864 5865 5867 5868 5868 5868 5870 5872 5872 5871 5868 5868 5869 5869 5871 5873 5874 5873 5872 5871 5871 5871 5871 5871 5873 5873 5873 5875 5874 5874 5874 5873 5873
5851 5852 5852 5852 5851 5851 5852 5853 5855 5856 5857 5858 5861 5862 5863 5864 5865 5867 5867 5866 5864 5864 5864 5865 5866 5867 5868 5868 5867 5868 5868 5868 5868 5868 5869 5870 5871 5872 5870 5870 5869 5868 5868
5852 5851 5851 5851 5849 5849 5847 5847 5848 5849 5851 5853 5855 5854 5856 5859 5860 5862 5862 5862 5860 5860 5861 5862 5861 5862 5864 5864 5864 5864 5864 5865 5864 5864 5865 5866 5868 5868 5867 5866 5866 5866 5866
5850 5849 5849 5848 5847 5846 5844 5844 5843 5844 5845 5847 5848 5850 5851 5852 5855 5856 5856 5856 5856 5856 5857 5858 5859 5859 5860 5861 5860 5861 5861 5861 5861 5861 5863 5862 5864 5864 5862 5862 5862 5863 5863
5852 5851 5849 5848 5846 5845 5843 5842 5841 5840 5840 5840 5840 5842 5844 5846 5848 5849 5850 5851 5850 5851 5852 5853 5853 5854 5856 5856 5857 5857 5856 5857 5858 5858 5859 5860 5861 5861 5860 5859 5859 5859 5860
5852 5851 5850 5848 5846 5844 5842 5840 5838 5837 5836 5836 5835 5836 5836 5838 5840 5841 5843 5845 5846 5847 5846 5847 5847 5848 5851 5851 5852 5853 5852 5853 5854 5855 5855 5856 5856 5857 5857 5856 5856 5856 5857
5850 5847 5846 5844 5842 5841 5839 5837 5836 5834 5833 5832 5831 5831 5831 5832 5833 5835 5836 5839 5840 5841 5841 5841 5837 5842 5844 5847 5849 5849 5849 5850 5850 5851 5852 5852 5852 5853 5853 5853 5852 5852 5852
5848 5846 5844 5841 5839 5839 5837 5836 5834 5832 5829 5828 5828 5828 5828 5828 5828 5829 5831 5833 5834 5834 5833 5833 5834 5835 5838 5841 5844 5844 5844 5846 5846 5846 5847 5847 5848 5849 5848 5848 5848 5847 5848
5845 5842 5840 5838 5835 5833 5832 5832 5830 5828 5826 5825 5824 5824 5822 5823 5823 5823 5825 5827 5828 5827 5829 5827 5826 5828 5834 5837 5840 5840 5840 5841 5841 5842 5842 5842 5844 5843 5843 5843 5842 5842 5841
5840 5837 5835 5834 5831 5830 5828 5826 5824 5822 5822 5821 5821 5818 5816 5816 5816 5817 5818 5821 5821 5822 5823 5823 5824 5825 5831 5833 5834 5834 5835 5835 5836 5836 5837 5837 5838 5837 5836 5836 5836 5835 5835
5834 5831 5830 5829 5828 5826 5823 5822 5820 5818 5816 5816 5815 5813 5812 5811 5811 5811 5812 5814 5816 5817 5818 5819 5820 5822 5823 5824 5826 5828 5828 5828 5829 5829 5830 5830 5831 5830 5829 5829 5829 5828 5827
5829 5827 5824 5823 5822 5821 5818 5817 5815 5813 5811 5810 5809 5809 5808 5806 5805 5805 5806 5807 5808 5810 5811 5812 5813 5814 5815 5816 5818 5820 5820 5820 5821 5822 5821 5822 5822 5822 5821 5820 5820 5819 5818
5826 5822 5818 5816 5814 5814 5813 5810 5809 5807 5807 5807 5805 5804 5803 5801 5800 5800 5801 5801 5801 5802 5805 5807 5807 5808 5808 5809 5810 5810 5810 5812 5812 5813 5814 5813 5814 5814 5812 5811 5812 5810 5810
5817 5816 5809 5808 5806 5807 5807 5804 5803 5801 5801 5800 5800 5800 5796 5795 5795 5792 5793 5795 5795 5796 5797 5799 5800 5800 5800 5801 5800 5799 5801 5802 5803 5804 5805 5807 5806 5806 5804 5800 5800 5802 5802
5806 5808 5805 5800 5798 5799 5799 5797 5796 5795 5796 5793 5793 5792 5793 5789 5787 5787 5786 5786 5788 5789 5790 5792 5793 5792 5792 5792 5791 5792 5793 5793 5793 5794 5795 5796 5795 5795 5796 5794 5792 5789 5788